This is the latest recevied weather packets stored in our database for station/object OM2RC-6. If no packets are shown the sender has not sent any weather packets the latest 1 day(s).
| Time | Temp. | Humidity | Pressure | Rain* | Wind** | Luminosity | Snow |
|---|---|---|---|---|---|---|---|
| 1778031288 | 14.44° C | 100% | 1008.6 hPa | - | 3.13 m/s, 155° | - | - |
| 1778030987 | 14.44° C | 100% | 1008.8 hPa | - | 2.68 m/s, 160° | - | - |
| 1778030686 | 13.89° C | 100% | 1008.8 hPa | - | 3.13 m/s, 147° | - | - |
| 1778030385 | 14.44° C | 100% | 1008.7 hPa | - | 2.68 m/s, 154° | - | - |
| 1778030084 | 15° C | 100% | 1008.8 hPa | - | 1.79 m/s, 147° | - | - |
| 1778029479 | 14.44° C | 100% | 1008.7 hPa | - | 3.13 m/s, 155° | - | - |
| 1778029178 | 14.44° C | 100% | 1008.5 hPa | - | 4.02 m/s, 146° | - | - |
| 1778028878 | 13.89° C | 100% | 1008.5 hPa | - | 4.02 m/s, 152° | - | - |
| 1778028576 | 14.44° C | 100% | 1008.4 hPa | - | 5.36 m/s, 153° | - | - |
| 1778028276 | 14.44° C | 100% | 1008.2 hPa | - | 4.92 m/s, 156° | - | - |
| 1778027674 | 14.44° C | 100% | 1008.3 hPa | - | 5.36 m/s, 157° | - | - |
| 1778027371 | 14.44° C | 100% | 1008.1 hPa | - | 4.47 m/s, 169° | - | - |
| 1778027069 | 14.44° C | 100% | 1008.1 hPa | - | 4.02 m/s, 162° | - | - |
| 1778026768 | 14.44° C | 100% | 1008.1 hPa | - | 4.92 m/s, 153° | - | - |
| 1778026467 | 14.44° C | 100% | 1007.9 hPa | - | 4.92 m/s, 146° | - | - |
| 1778026166 | 14.44° C | 100% | 1008.1 hPa | - | 5.36 m/s, 147° | - | - |
| 1778025865 | 14.44° C | 100% | 1008 hPa | - | 4.92 m/s, 164° | - | - |
| 1778025563 | 14.44° C | 100% | 1007.9 hPa | - | 4.47 m/s, 151° | - | - |
| 1778025261 | 14.44° C | 100% | 1007.9 hPa | - | 4.92 m/s, 143° | - | - |
| 1778024960 | 14.44° C | 100% | 1007.8 hPa | - | 4.92 m/s, 144° | - | - |
| 1778024658 | 14.44° C | 100% | 1007.8 hPa | - | 4.02 m/s, 154° | - | - |
| 1778024357 | 14.44° C | 100% | 1007.9 hPa | - | 4.92 m/s, 151° | - | - |
| 1778024056 | 14.44° C | 100% | 1007.8 hPa | - | 4.92 m/s, 149° | - | - |
| 1778023153 | 14.44° C | 100% | 1007.8 hPa | - | 5.36 m/s, 152° | - | - |
| 1778022851 | 14.44° C | 100% | 1007.7 hPa | - | 5.36 m/s, 149° | - | - |
* Rain since midnight (hover to see other rain measurements)
** Current wind speed in m/s (hover to see current wind gust speed)